Estación de Los Angeles
Ultimos registro cada 15 minutos 57
| N° | Estación | Fecha / Hora | Temperatura | Humedad | Lluvia | Velocidad | Dirección | Radiación | Presion |
| 57 | Los Angeles | 08-05-2026 14:00 | 12,1 | 89,2 | 0 | 0,3 | 303 | 205,6 | 1010,7 |
| 56 | Los Angeles | 08-05-2026 13:45 | 12 | 89,6 | 0 | 0,3 | 268 | 219,4 | 1010,7 |
| 55 | Los Angeles | 08-05-2026 13:30 | 11,6 | 90,2 | 0 | 1 | 289 | 255,6 | 1010,8 |
| 54 | Los Angeles | 08-05-2026 13:15 | 11,4 | 90,2 | 0,2 | 1 | 279 | 204,4 | 1010,8 |
| 53 | Los Angeles | 08-05-2026 13:00 | 11,7 | 89 | 0 | 0,7 | 340 | 176,9 | 1011,2 |
| 52 | Los Angeles | 08-05-2026 12:45 | 11,6 | 89,5 | 0 | 0,3 | 320 | 170,6 | 1011,4 |
| 51 | Los Angeles | 08-05-2026 12:30 | 11,8 | 89,9 | 0 | 0,7 | 305 | 251,9 | 1011,3 |
| 50 | Los Angeles | 08-05-2026 12:15 | 11,5 | 91 | 0 | 1 | 310 | 218,1 | 1011,2 |
| 49 | Los Angeles | 08-05-2026 12:00 | 11,2 | 93,1 | 0 | 0,7 | 310 | 234,4 | 1011,3 |
| 48 | Los Angeles | 08-05-2026 11:45 | 10,3 | 94,2 | 0 | 0,7 | 309 | 139,4 | 1011,3 |
| 47 | Los Angeles | 08-05-2026 11:30 | 10,1 | 94,4 | 0 | 0,3 | 323 | 123,1 | 1011,4 |
| 46 | Los Angeles | 08-05-2026 11:15 | 10 | 95,1 | 0 | 0,3 | 316 | 73,1 | 1011,4 |
| 45 | Los Angeles | 08-05-2026 11:00 | 9,9 | 95,7 | 0 | 0,3 | 352 | 116,9 | 1011,5 |
| 44 | Los Angeles | 08-05-2026 10:45 | 9,4 | 96,1 | 0 | 0,7 | 0 | 93,1 | 1011,5 |
| 43 | Los Angeles | 08-05-2026 10:30 | 9,5 | 96,6 | 0 | 0,3 | 355 | 88,1 | 1011,7 |
| 42 | Los Angeles | 08-05-2026 10:15 | 9,4 | 97 | 0 | 0,3 | 348 | 90,6 | 1011,8 |
| 41 | Los Angeles | 08-05-2026 10:00 | 8,9 | 97,2 | 0 | 0,3 | 330 | 139,4 | 1011,7 |
| 40 | Los Angeles | 08-05-2026 09:45 | 8,8 | 97,4 | 0 | 0 | 334 | 75,6 | 1011,8 |
| 39 | Los Angeles | 08-05-2026 09:30 | 8,3 | 97,2 | 0 | 0,3 | 358 | 46,9 | 1011,7 |
| 38 | Los Angeles | 08-05-2026 09:15 | 8,3 | 97,3 | 0 | 0,3 | 4 | 49,4 | 1011,6 |
| 37 | Los Angeles | 08-05-2026 09:00 | 8,1 | 97,3 | 0 | 0,3 | 6 | 41,9 | 1011,5 |
| 36 | Los Angeles | 08-05-2026 08:45 | 8,1 | 97,3 | 0 | 0,3 | 357 | 51,9 | 1011,5 |
| 35 | Los Angeles | 08-05-2026 08:30 | 8 | 97,1 | 0 | 0 | 17 | 21,9 | 1011,5 |
| 34 | Los Angeles | 08-05-2026 08:15 | 7,8 | 97,1 | 0 | 0 | 358 | 15,6 | 1011,2 |
| 33 | Los Angeles | 08-05-2026 08:00 | 7,8 | 97,1 | 0 | 0 | 13 | 4,4 | 1011,1 |
| 32 | Los Angeles | 08-05-2026 07:45 | 7,8 | 96,9 | 0,2 | 0 | 358 | 0,6 | 1011 |
| 31 | Los Angeles | 08-05-2026 07:30 | 7,8 | 96,8 | 0,4 | 0 | 358 | 0,6 | 1011,1 |
| 30 | Los Angeles | 08-05-2026 07:15 | 7,8 | 96,7 | 0,2 | 0 | 0 | 0,6 | 1011 |
| 29 | Los Angeles | 08-05-2026 07:00 | 7,8 | 96,6 | 0,2 | 0,3 | 3 | 0,6 | 1010,7 |
| 28 | Los Angeles | 08-05-2026 06:45 | 7,9 | 96,6 | 0 | 0,3 | 357 | 0,6 | 1010,7 |
| 27 | Los Angeles | 08-05-2026 06:30 | 7,9 | 96,7 | 0 | 0,7 | 28 | 0,6 | 1010,7 |
| 26 | Los Angeles | 08-05-2026 06:15 | 7,9 | 96,7 | 0 | 0,3 | 8 | 0,6 | 1010,7 |
| 25 | Los Angeles | 08-05-2026 06:00 | 7,9 | 96,8 | 0 | 0,7 | 24 | 0,6 | 1010,9 |
| 24 | Los Angeles | 08-05-2026 05:45 | 7,9 | 96,5 | 0,2 | 0,3 | 14 | 0,6 | 1011,1 |
| 23 | Los Angeles | 08-05-2026 05:30 | 8 | 96,3 | 0,6 | 0,3 | 352 | 0,6 | 1011,4 |
| 22 | Los Angeles | 08-05-2026 05:15 | 8,1 | 96,3 | 0 | 0,3 | 345 | 0,6 | 1011,2 |
| 21 | Los Angeles | 08-05-2026 05:00 | 8 | 96,3 | 0 | 0,7 | 14 | 0,6 | 1011,1 |
| 20 | Los Angeles | 08-05-2026 04:45 | 8,1 | 96,2 | 0 | 0,3 | 27 | 0,6 | 1011,2 |
| 19 | Los Angeles | 08-05-2026 04:30 | 8 | 95,8 | 0,6 | 0,3 | 28 | 0,6 | 1011,3 |
| 18 | Los Angeles | 08-05-2026 04:15 | 8,1 | 95,4 | 0 | 0,3 | 37 | 0,6 | 1011,8 |
| 17 | Los Angeles | 08-05-2026 04:00 | 8,1 | 95,2 | 0 | 0,7 | 17 | 0,6 | 1011,6 |
| 16 | Los Angeles | 08-05-2026 03:45 | 8,2 | 94,4 | 0,2 | 0,7 | 8 | 0,6 | 1011,7 |
| 15 | Los Angeles | 08-05-2026 03:30 | 8,5 | 93 | 0 | 0,7 | 4 | 0,6 | 1012,4 |
| 14 | Los Angeles | 08-05-2026 03:15 | 8,6 | 92,4 | 0 | 0,3 | 354 | 0,6 | 1012,3 |
| 13 | Los Angeles | 08-05-2026 03:00 | 8,5 | 92,9 | 0 | 0,3 | 10 | 0,6 | 1012,4 |
| 12 | Los Angeles | 08-05-2026 02:45 | 8,5 | 92,9 | 0 | 0,3 | 334 | 0,6 | 1012,2 |
| 11 | Los Angeles | 08-05-2026 02:30 | 8,7 | 92,2 | 0 | 0,3 | 320 | 0,6 | 1012,6 |
| 10 | Los Angeles | 08-05-2026 02:15 | 8,7 | 92,2 | 0 | 0,3 | 333 | 0,6 | 1012,9 |
| 9 | Los Angeles | 08-05-2026 02:00 | 8,6 | 92,2 | 0 | 0,3 | 323 | 0,6 | 1012,9 |
| 8 | Los Angeles | 08-05-2026 01:45 | 8,6 | 92,2 | 0 | 0 | 338 | 0,6 | 1012,9 |
| 7 | Los Angeles | 08-05-2026 01:30 | 8,5 | 91,9 | 0 | 0 | 4 | 0,6 | 1013,2 |
| 6 | Los Angeles | 08-05-2026 01:15 | 8,6 | 91,7 | 0 | 0 | 4 | 0,6 | 1013,8 |
| 5 | Los Angeles | 08-05-2026 01:00 | 8,5 | 91,9 | 0 | 0 | 10 | 0,6 | 1013,9 |
| 4 | Los Angeles | 08-05-2026 00:45 | 8,5 | 91,4 | 0 | 0 | 3 | 0,6 | 1013,7 |
| 3 | Los Angeles | 08-05-2026 00:30 | 8,6 | 91,3 | 0 | 0 | 3 | 0,6 | 1014,1 |
| 2 | Los Angeles | 08-05-2026 00:15 | 8,6 | 91,3 | 0 | 0 | 336 | 0,6 | 1014,2 |
| 1 | Los Angeles | 08-05-2026 00:00 | 8,6 | 91,2 | 0 | 0,3 | 321 | 0,6 | 1014,5 |